Latest Coastal Weather Observations for Spring Bay

IDT60701

Issued at 9:12 pm EST Monday 24 April 2017 (issued every 10 minutes, with the page automatically refreshed every 10 minutes)

About coastal observations | Map of coastal stations | Coastal observations for TAS | Marine services | Other Formats
Station Details ID: 092133 Name: SPRING BAY NTC AWS Lat: -42.55 Lon: 147.93 Height: 0.0 m
Data from the previous 72 hours. | See also: Recent months for locations in Tasmania
Date/Time
EST
Temp
°C
Wind Pressure Rain since
9am
mm
Weather Cloud Vis
km
Sea
Height
m
Swell
Dir  Spd
kts
Gust
kts
hPa Trend Height
m
Period
s
Dir
24/09:00pm 14.8 - - - 1012.5 - - - - - - - - -
24/08:30pm 15.4 - - - 1012.8 - - - - - - - - -
24/08:00pm 15.8 - - - 1013.1 - - - - - - - - -
24/07:30pm 15.8 - - - 1013.3 - - - - - - - - -
24/07:00pm 15.6 - - - 1013.4 - - - - - - - - -
24/06:30pm 15.9 - - - 1013.5 - - - - - - - - -
24/06:00pm 16.2 - - - 1013.7 - - - - - - - - -
24/05:30pm 16.1 - - - 1013.6 - - - - - - - - -
24/05:00pm 16.5 - - - 1014.0 - - - - - - - - -
24/04:30pm 16.8 - - - 1013.9 - - - - - - - - -
24/04:00pm 16.9 - - - 1014.2 - - - - - - - - -
24/03:30pm 16.9 - - - 1014.6 - - - - - - - - -
24/03:00pm 17.0 - - - 1014.9 - - - - - - - - -
24/02:30pm 16.6 - - - 1015.4 - - - - - - - - -
24/02:00pm 16.6 - - - 1015.7 - - - - - - - - -
24/01:30pm 16.5 - - - 1016.2 - - - - - - - - -
24/01:00pm 16.5 - - - 1016.6 - - - - - - - - -
24/12:30pm 16.3 - - - 1017.3 - - - - - - - - -
24/12:00pm 16.4 - - - 1018.0 - - - - - - - - -
24/11:30am 16.5 - - - 1018.4 - - - - - - - - -
24/11:00am 16.0 - - - 1019.0 - - - - - - - - -
24/10:30am 15.6 - - - 1019.5 - - - - - - - - -
24/10:00am 15.1 - - - 1019.9 - - - - - - - - -
24/09:30am 14.6 - - - 1020.2 - - - - - - - - -
24/09:00am 14.2 - - - 1020.4 - - - - - - - - -
24/08:30am 13.8 - - - 1021.0 - - - - - - - - -
24/08:00am 13.6 - - - 1021.1 - - - - - - - - -
24/07:30am 13.3 - - - 1021.2 - - - - - - - - -
24/07:00am 13.3 - - - 1021.3 - - - - - - - - -
24/06:30am 13.2 - - - 1021.6 - - - - - - - - -
24/06:00am 13.2 - - - 1021.8 - - - - - - - - -
24/05:30am 13.2 - - - 1021.8 - - - - - - - - -
24/05:00am 13.2 - - - 1021.9 - - - - - - - - -
24/04:30am 13.0 - - - 1022.0 - - - - - - - - -
24/04:00am 13.1 - - - 1022.1 - - - - - - - - -
24/03:30am 12.9 - - - 1022.2 - - - - - - - - -
24/03:00am 12.9 - - - 1022.7 - - - - - - - - -
24/02:30am 12.8 - - - 1023.0 - - - - - - - - -
24/02:00am 13.1 - - - 1023.4 - - - - - - - - -
24/01:30am 12.9 - - - 1023.6 - - - - - - - - -
24/01:00am 13.1 - - - 1023.8 - - - - - - - - -
24/12:30am 13.0 - - - 1024.1 - - - - - - - - -
24/12:00am 12.8 - - - 1024.2 - - - - - - - - -
 
Date/Time
EST
Temp
°C
Wind Pressure Rain since
9am
mm
Weather Cloud Vis
km
Sea
Height
m
Swell
Dir  Spd
kts
Gust
kts
hPa Trend Height
m
Period
s
Dir
23/11:30pm 13.0 - - - 1024.7 - - - - - - - - -
23/11:00pm 13.6 - - - 1025.0 - - - - - - - - -
23/10:30pm 13.6 - - - 1025.1 - - - - - - - - -
23/10:00pm 13.7 - - - 1025.2 - - - - - - - - -
23/09:30pm 13.8 - - - 1025.5 - - - - - - - - -
23/09:00pm 13.6 - - - 1025.3 - - - - - - - - -
23/08:30pm 13.9 - - - 1025.4 - - - - - - - - -
23/08:00pm 13.9 - - - 1025.2 - - - - - - - - -
23/07:30pm 14.1 - - - 1025.2 - - - - - - - - -
23/07:00pm 14.1 - - - 1025.1 - - - - - - - - -
23/06:30pm 14.5 - - - 1025.2 - - - - - - - - -
23/06:00pm 14.4 - - - 1025.0 - - - - - - - - -
23/05:30pm 14.3 - - - 1024.8 - - - - - - - - -
23/05:00pm 14.3 - - - 1024.9 - - - - - - - - -
23/04:30pm 14.6 - - - 1024.8 - - - - - - - - -
23/04:00pm 14.6 - - - 1024.7 - - - - - - - - -
23/03:30pm 14.6 - - - 1024.7 - - - - - - - - -
23/03:00pm 14.4 - - - 1024.8 - - - - - - - - -
23/02:30pm 14.5 - - - 1024.7 - - - - - - - - -
23/02:00pm 13.9 - - - 1024.8 - - - - - - - - -
23/01:30pm 13.7 - - - 1025.0 - - - - - - - - -
23/01:00pm 13.5 - - - 1025.1 - - - - - - - - -
23/12:30pm 13.3 - - - 1025.3 - - - - - - - - -
23/12:00pm 13.2 - - - 1025.7 - - - - - - - - -
23/11:30am 13.1 - - - 1026.1 - - - - - - - - -
23/11:00am 13.3 - - - 1026.1 - - - - - - - - -
23/10:30am 13.5 - - - 1026.3 - - - - - - - - -
23/10:00am 14.3 - - - 1026.2 - - - - - - - - -
23/09:30am 14.3 - - - 1026.2 - - - - - - - - -
23/09:00am 14.2 - - - 1026.3 - - - - - - - - -
23/08:30am 14.2 - - - 1026.1 - - - - - - - - -
23/08:00am 14.0 - - - 1025.9 - - - - - - - - -
23/07:30am 13.9 - - - 1025.4 - - - - - - - - -
23/07:00am 14.1 - - - 1025.3 - - - - - - - - -
23/06:30am 14.2 - - - 1024.9 - - - - - - - - -
23/06:00am 14.2 - - - 1024.7 - - - - - - - - -
23/05:30am 14.3 - - - 1024.6 - - - - - - - - -
23/05:00am 14.5 - - - 1024.2 - - - - - - - - -
23/04:30am 14.4 - - - 1024.0 - - - - - - - - -
23/04:00am 14.2 - - - 1023.8 - - - - - - - - -
23/03:30am 14.4 - - - 1023.7 - - - - - - - - -
23/03:00am 14.6 - - - 1023.7 - - - - - - - - -
23/02:30am 15.1 - - - 1023.7 - - - - - - - - -
23/02:00am 15.6 - - - 1023.8 - - - - - - - - -
23/01:30am 15.5 - - - 1023.6 - - - - - - - - -
23/01:00am 15.6 - - - 1023.6 - - - - - - - - -
23/12:30am 15.4 - - - 1023.7 - - - - - - - - -
23/12:00am 15.4 - - - 1023.7 - - - - - - - - -
 
Date/Time
EST
Temp
°C
Wind Pressure Rain since
9am
mm
Weather Cloud Vis
km
Sea
Height
m
Swell
Dir  Spd
kts
Gust
kts
hPa Trend Height
m
Period
s
Dir
22/11:30pm 15.5 - - - 1023.7 - - - - - - - - -
22/11:00pm 15.6 - - - 1023.8 - - - - - - - - -
22/10:30pm 15.7 - - - 1023.8 - - - - - - - - -
22/10:00pm 15.7 - - - 1023.7 - - - - - - - - -
22/09:30pm 15.8 - - - 1023.7 - - - - - - - - -
22/09:00pm 15.8 - - - 1023.6 - - - - - - - - -
22/08:30pm 15.9 - - - 1023.4 - - - - - - - - -
22/08:00pm 16.1 - - - 1023.3 - - - - - - - - -
22/07:30pm 16.2 - - - 1023.1 - - - - - - - - -
22/07:00pm 16.3 - - - 1022.8 - - - - - - - - -
22/06:30pm 16.3 - - - 1022.6 - - - - - - - - -
22/06:00pm 16.4 - - - 1022.3 - - - - - - - - -
22/05:30pm 16.6 - - - 1022.0 - - - - - - - - -
22/05:00pm 16.7 - - - 1021.9 - - - - - - - - -
22/04:30pm 16.8 - - - 1021.6 - - - - - - - - -
22/04:00pm 16.7 - - - 1021.4 - - - - - - - - -
22/03:30pm 16.7 - - - 1021.2 - - - - - - - - -
22/03:00pm 16.7 - - - 1021.2 - - - - - - - - -
22/02:30pm 16.7 - - - 1021.0 - - - - - - - - -
22/02:00pm 17.2 - - - 1020.8 - - - - - - - - -
22/01:30pm 18.0 - - - 1020.7 - - - - - - - - -
22/01:00pm 17.4 - - - 1020.8 - - - - - - - - -
22/12:30pm 18.0 - - - 1021.1 - - - - - - - - -
22/12:00pm 17.8 - - - 1021.2 - - - - - - - - -
22/11:30am 17.7 - - - 1021.6 - - - - - - - - -
22/11:00am 17.0 - - - 1021.8 - - - - - - - - -
22/10:30am 16.8 - - - 1021.7 - - - - - - - - -
22/10:00am 16.3 - - - 1021.8 - - - - - - - - -
22/09:30am 15.4 - - - 1021.9 - - - - - - - - -
22/09:00am 15.0 - - - 1022.0 - - - - - - - - -
22/08:30am 14.8 - - - 1021.9 - - - - - - - - -
22/08:00am 14.8 - - - 1022.0 - - - - - - - - -
22/07:30am 14.3 - - - 1021.9 - - - - - - - - -

Other Formats:

Comma delimited format used in spreadsheet applications
http://www.bom.gov.au/fwo/IDT60701/IDT60701.95987.axf

JavaScript Object Notation format (JSON) in row-major order
http://www.bom.gov.au/fwo/IDT60701/IDT60701.95987.json